Location: Hartha
(51.1030°N, 12.9600°E)
Time: 03:12:10
(UTC+02:00)

ISS - Visible Passes

Search period start: 01 July 2022 00:00
Search period end: 11 July 2022 00:00
Orbit: 414 x 420 km, 51.6° (Epoch: 30 June)

Date Brightness Start Highest point End Pass type
(mag) Time Alt. Az. Time Alt. Az. Time Alt. Az.
01 Jul -2.2 03:22:08 14° S 03:24:01 22° SE 03:26:43 10° E visible
02 Jul -1.8 02:35:35 15° SSE 02:36:02 15° SE 02:38:06 10° ESE visible
02 Jul -3.5 04:08:58 10° WSW 04:12:17 57° SSE 04:15:36 10° E visible
03 Jul -3.2 03:21:51 17° SW 03:24:08 42° SSE 03:27:22 10° E visible
04 Jul -2.8 02:35:10 26° S 02:36:02 30° SSE 02:39:03 10° E visible
04 Jul -3.8 04:09:12 10° WSW 04:12:34 86° S 04:15:58 10° E visible
05 Jul -2.1 01:48:26 21° SE 01:48:26 21° SE 01:50:36 10° E visible
05 Jul -3.8 03:21:19 12° WSW 03:24:21 72° SSE 03:27:43 10° E visible
06 Jul -1.2 01:01:38 11° ESE 01:01:38 11° ESE 01:01:53 10° ESE visible
06 Jul -3.7 02:34:31 26° SW 02:36:08 55° SSE 02:39:27 10° E visible
06 Jul -3.6 04:09:30 10° W 04:12:52 79° N 04:16:15 10° E visible
07 Jul -3.3 01:47:38 39° S 01:47:57 40° SSE 01:51:09 10° E visible
07 Jul -3.7 03:21:13 10° W 03:24:35 84° N 03:27:58 10° E visible
08 Jul -2.4 01:00:40 25° ESE 01:00:40 25° ESE 01:02:45 10° E visible
08 Jul -3.9 02:33:33 15° WSW 02:36:18 85° S 02:39:41 10° E visible
08 Jul -3.7 04:09:44 10° W 04:13:07 85° N 04:16:30 10° E visible
09 Jul -1.5 00:13:34 13° ESE 00:13:34 13° ESE 00:14:14 10° E visible
09 Jul -3.9 01:46:26 28° WSW 01:48:01 70° SSE 01:51:23 10° E visible
09 Jul -3.7 03:21:26 10° W 03:24:48 79° N 03:28:11 10° E visible
10 Jul -3.7 00:59:06 44° SSW 00:59:46 53° SSE 01:03:03 10° E visible
10 Jul -3.7 02:33:06 10° W 02:36:28 80° N 02:39:51 10° E visible
10 Jul -3.8 04:09:54 10° W 04:13:16 71° SSW 04:16:37 10° ESE visible
